Regional Weather Roundup
Issued by NWS Kansas City/Pleasant Hill, MO

Home | Current Version | Previous Version | Text Only | Print | Product List | Glossary On
Versions: 1 2 3 4 5 6 7 8 9 10 11 12 13 14 15 16 17 18 19 20 21 22 23 24 25 26 27 28 29 30 31 32 33 34 35 36 37 38 39 40 41 42 43 44 45 46 47 48 49 50
000
ASUS43 KEAX 170111
RWREAX

WEATHER ROUNDUP FOR EASTERN KANSAS AND NORTHWEST MISSOURI
NATIONAL WEATHER SERVICE KANSAS CITY/PLEASANT HILL MO
800 PM CDT TUE SEP 16 2014

KSZ040-057-103>105-MOZ028-029-037-043-170200-
...KANSAS CITY METROPOLITAN AREA...

CITY           SKY/WX    TMP DP  RH WIND       PRES   REMARKS
K.C. INTL      PTCLDY    65  52  62 E8        30.04S
K.C. DOWNTOWN  CLEAR     69  53  56 SE7       30.03S
LEES SUMMIT    CLEAR     65  54  67 SE5       30.05S
OLATHE - IXD   CLEAR     65  56  72 SE6       30.04F
OLATHE - OJC   CLEAR     64  55  72 SE6       30.03F
LAWRENCE       CLEAR     62  54  74 E6        30.03F

$$

MOZ001>008-011>017-020>025-030>033-038>040-044>046-053-054-170200-
...NORTHERN AND CENTRAL MISSOURI...

CITY           SKY/WX    TMP DP  RH WIND       PRES   REMARKS
ST. JOSEPH     CLEAR     60  53  77 SE5       30.04S
MOSBY          CLEAR     63  54  72 CALM      30.04S
WHITEMAN AFB   CLEAR     61  57  85 E1        30.05S
CLINTON        CLEAR     63  57  82 CALM      30.05F
SEDALIA        CLEAR     63  55  75 SE5       30.06F
WARSAW         NOT AVBL
MARSHALL       CLEAR     64  55  72 E3        30.08R
CHILLICOTHE      N/A     58  55  90 CALM      30.07S
MOBERLY        CLEAR     59  52  77 E3        30.08S
KIRKSVILLE     CLEAR     54  51  90 CALM      30.08F

$$

MOZ041-047>049-056>058-063>065-088>090-097-170200-
...EASTERN AND SOUTHERN MISSOURI...

CITY           SKY/WX    TMP DP  RH WIND       PRES   REMARKS
ST. LOUIS INTL PTCLDY    59  51  75 E6        30.10F
SPIRIT OF STL  CLEAR     57  54  89 CALM      30.09S
COLUMBIA       PTCLDY    60  54  80 E6        30.08S
JEFFERSON CITY CLEAR     63  54  72 E3        30.07S
MEXICO         CLEAR     59  57  94 SE3       30.08F
HANNIBAL       CLEAR     55  52  88 SE3       30.08S
ROLLA          FOG       57  53  86 SE6       30.08S VSB 1
LEBANON        PTCLDY    61  57  88 E3        30.08F
OSAGE BEACH    CLEAR     63  55  77 CALM      30.08S
SPRINGFIELD    PTCLDY    66  62  87 S8        30.06S
BRANSON        CLOUDY    66  63  88 E6        30.09F
NEVADA         CLEAR     63  59  88 E5        30.06S
JOPLIN         CLOUDY    71  65  81 MISG      30.04F
WEST PLAINS    CLOUDY    64  59  83 SE3       30.10S

$$

IAZ060-094-KSZ022-034>040-054-083-096-NEZ052-066-093-170200-
...KANSAS...SOUTHEAST NEBRASKA AND IOWA...

CITY           SKY/WX    TMP DP  RH WIND       PRES   REMARKS
TOPEKA         CLEAR     67  56  67 E5        30.02S
MANHATTAN      CLEAR     68  54  60 CALM      30.00S
EMPORIA        CLEAR     68  61  78 SE7       30.00F
CHANUTE        CLEAR     68  63  84 SE5       30.02F
WICHITA        PTCLDY    74  63  68 SE10      29.99F
OMAHA          MOCLDY    65  50  58 SE9       30.02F
LINCOLN        CLOUDY    66  52  60 S7        30.02S
FALLS CITY     CLOUDY    64  54  69 SE3       30.02S
LAMONI         CLEAR     60  50  69 SE3       30.06S
DES MOINES     PTCLDY    62  49  62 SE7       30.05F

$$




USA.gov is the U.S. government's official web portal to all federal, state and local government web resources and services.